JQ1YUX-13 Tokyo Ota-ku JP current weather conditions

sailwx.info

Wind from 192

Air temperature 28.3° C
Dewpoint 23.7° C

Last reported at 2016-Jun-27 01:19 UTC.
Time now 2016-Jun-27 02:26 UTC

Location: N 35°35' E 139°40'.
View on Google Maps.

See reports from other nearby stations

  
Tides and Currents Weather Stations Pressure Air Temp Water Temp Dewpoint Dewpoint Depression Visibility Wind Speed Wind Dir Waves Ship Positions
date/time (UTC)wind fromknots sea level pressurealtimeterstation pressurevisibilityair tempwater tempwave heightnotes
2016-Jun-27 01:19 192 28.3
2016-Jun-27 00:49 219 26.7
2016-Jun-27 00:19 015 27.8
2016-Jun-26 23:49 288 26.1
2016-Jun-26 23:19 034 26.7
2016-Jun-26 22:49 011 25.6
2016-Jun-26 22:19 018 24.4
2016-Jun-26 21:49 028 23.3
2016-Jun-26 21:19 014 22.8
2016-Jun-26 20:49 032 0 22.8
2016-Jun-26 20:19 030 22.2
2016-Jun-26 19:49 043 22.8
2016-Jun-26 19:19 046 0 gusting 4 22.8
2016-Jun-26 18:49 049 22.8
2016-Jun-26 18:19 341 22.2
2016-Jun-26 17:49 334 22.2
2016-Jun-26 17:19 335 22.2
2016-Jun-26 16:49 336 22.8
2016-Jun-26 16:19 333 23.3
2016-Jun-26 15:49 325 23.3
2016-Jun-26 15:19 173 23.9
2016-Jun-26 14:49 173 23.3
2016-Jun-26 14:19 174 23.3
2016-Jun-26 13:49 173 23.9
2016-Jun-26 13:19 173 23.9
2016-Jun-26 12:49 173 24.4
2016-Jun-26 12:19 173 24.4
2016-Jun-26 11:49 174 24.4
2016-Jun-26 11:19 175 24.4
2016-Jun-26 10:49 175 24.4
2016-Jun-26 10:19 186 25.6
2016-Jun-26 09:49 168 26.1
2016-Jun-26 09:19 188 1 gusting 5 27.2
2016-Jun-26 08:49 163 28.3
2016-Jun-26 08:19 182 28.9
2016-Jun-26 07:49 197 29.4
2016-Jun-26 07:19 222 29.4
2016-Jun-26 06:49 196 0 gusting 4 29.4
2016-Jun-26 06:19 169 3 gusting 5 30.0
2016-Jun-26 05:49 191 0 gusting 6 30.6
2016-Jun-26 05:19 191 30.6
2016-Jun-26 04:49 192 30.0
2016-Jun-26 04:19 193 0 gusting 1 28.9
2016-Jun-26 03:49 208 1 gusting 6 28.3
2016-Jun-26 03:19 191 28.9
2016-Jun-26 02:49 201 27.8
2016-Jun-26 02:19 182 27.8
2016-Jun-26 01:49 191 27.8
2016-Jun-26 01:19 161 0 gusting 1 27.2
2016-Jun-26 00:49 165 28.9
2016-Jun-26 00:19 035 27.2
2016-Jun-25 23:49 048 27.2
2016-Jun-25 23:19 182 26.1
2016-Jun-25 22:49 182 25.0
2016-Jun-25 22:19 182 23.9
2016-Jun-25 21:49 183 23.3
2016-Jun-25 21:19 182 23.3
2016-Jun-25 20:49 213 23.3
2016-Jun-25 20:19 213 23.3
2016-Jun-25 19:49 213 23.3
2016-Jun-25 19:19 258 23.3
2016-Jun-25 18:49 259 23.3
2016-Jun-25 18:19 285 23.9
2016-Jun-25 17:49 268 24.4
2016-Jun-25 17:19 218 25.6
2016-Jun-25 16:49 196 25.6
2016-Jun-25 16:19 169 25.6
2016-Jun-25 15:49 215 25.6
2016-Jun-25 15:19 194 25.6
2016-Jun-25 14:49 217 26.1
2016-Jun-25 14:19 189 26.1
2016-Jun-25 13:49 221 26.1
2016-Jun-25 13:19 217 26.7
2016-Jun-25 12:49 164 26.7
2016-Jun-25 12:19 229 26.7
2016-Jun-25 11:49 242 26.7
2016-Jun-25 11:19 204 26.7
2016-Jun-25 10:49 226 26.7
2016-Jun-25 10:19 196 27.2
2016-Jun-25 09:49 191 27.2
2016-Jun-25 09:19 229 27.2
2016-Jun-25 08:49 238 27.8
2016-Jun-25 08:19 207 28.3
2016-Jun-25 07:49 163 28.3
2016-Jun-25 07:19 225 28.3
2016-Jun-25 06:49 200 28.3
2016-Jun-25 06:19 218 28.9
2016-Jun-25 05:49 234 28.9
2016-Jun-25 05:19 199 28.3
2016-Jun-25 04:49 213 28.9
2016-Jun-25 04:19 229 3 gusting 6 28.9
2016-Jun-25 03:49 221 28.9
2016-Jun-25 03:19 207 2 gusting 6 28.3
2016-Jun-25 02:49 219 2 gusting 6 28.3
2016-Jun-25 02:19 289 1 gusting 5 27.8